Flag Weather past 2 weeks in Makati, Philippines

Now
82 °F

Scattered clouds.


Feels Like: 92 °F
Forecast: 79 / 86 °F
Wind: 5 mph from East

Location: National Airport

Current Time: Nov 29, 2014 at 8:37:49 AM

Latest Report: Nov 29, 2014 at 8:00 AM


Visibility: N/A

Pressure: 29.89 "Hg

Humidity: 89%

Dew point: 79 °F

Location of MakatiLocation

Historic Weather in Makati — Graph

°F

Makati temperature yesterday

Maximum temperature yesterday: 90 °F (at 1:00 PM)
Minimum temperature yesterday: 77 °F (at 5:00 AM)
Average temperature yesterday: 83 °F

Past Weeks' High & Low Weather Summary

 TemperatureHumidityPressure
High91 °F (Nov 16, 1:00 PM)100% (Nov 15, 7:00 AM)29.95 "Hg (Nov 15, 7:00 AM)
Low73 °F (Nov 27, 9:00 AM)13% (Nov 15, 12:00 PM)29.74 "Hg (Nov 16, 3:00 PM)
Average83 °F78%29.84 "Hg
* Reported Nov 14 7:00 AM — Nov 29 7:00 AM, Makati, Weather by CustomWeather, © 2014

Note: Actual official high and low records may vary slightly from our data, if they occured in-between our weather recording intervals... More about our weather records

Advertising

Makati weather history for previous 24 hours

 ConditionsComfort  
Time TempWeatherWind HumidityBarometerVisibility
7:00 AM
Nov 29
79 °FScattered clouds.5 mph100%29.86 "HgN/A
6:00 AM81 °FPassing clouds.5 mph89%29.86 "HgN/A
5:00 AM81 °FPartly cloudy.5 mph94%29.83 "HgN/A
4:00 AM79 °FPartly cloudy.3 mph100%29.83 "HgN/A
3:00 AM79 °FLight rain. Mostly cloudy.6 mph100%29.83 "Hg6 mi
2:00 AM81 °FSprinkles. Mostly cloudy.7 mph89%29.83 "HgN/A
1:00 AM81 °FPassing clouds.3 mph89%29.86 "HgN/A
12:00 AM81 °FPassing clouds.6 mph84%29.86 "HgN/A
11:00 PM
Nov 28
82 °FPassing clouds.6 mph84%29.86 "HgN/A
10:00 PM82 °FPassing clouds.6 mph79%29.89 "HgN/A
9:00 PM82 °FPassing clouds.6 mph79%29.89 "HgN/A
8:00 PM82 °FPassing clouds.7 mph79%29.86 "HgN/A
7:00 PM84 °FPassing clouds.8 mph74%29.86 "HgN/A
6:00 PM84 °FPassing clouds.10 mph74%29.83 "HgN/A
5:00 PM86 °FScattered clouds.10 mph66%29.80 "HgN/A
4:00 PM90 °FPassing clouds.13 mph59%29.77 "HgN/A
3:00 PM90 °FPassing clouds.12 mph59%29.77 "HgN/A
2:00 PM90 °FScattered clouds.14 mph59%29.80 "HgN/A
1:00 PM90 °FScattered clouds.13 mph59%29.83 "HgN/A
12:00 PM88 °FBroken clouds.12 mph62%29.86 "HgN/A
11:00 AM86 °FBroken clouds.12 mph70%29.89 "HgN/A
10:00 AM86 °FBroken clouds.13 mph75%29.89 "HgN/A
9:00 AM86 °FPartly sunny.8 mph75%29.89 "HgN/A
8:00 AM82 °FBroken clouds.6 mph89%29.89 "HgN/A
Weather by CustomWeather, © 2014

See weather overviewHow to use our weather pages